Gold Coast Seaway Observation History
Time Wind Speed Temp Pressure Rel. Hum Rain
10/09:00am S 5-7 kts 17.5°c 1027.6 hPa 82% 8.0mm
10/08:30am SSW 5-7 kts 16.8°c 1027.5 hPa 85% 8.0mm
10/08:00am SW 6-8 kts 15.9°c 1027.4 hPa 88% 8.0mm
10/07:30am SSW 5-7 kts 15.2°c 1027.3 hPa 89% 8.0mm
10/07:00am SSW 6-9 kts 15.1°c 1027.1 hPa 89% 8.0mm
10/06:30am W 3-5 kts 15.3°c 1026.9 hPa 88% 7.8mm
10/06:00am SW 5-7 kts 15.3°c 1026.8 hPa 88% 7.8mm
10/05:30am SW 7-9 kts 15.3°c 1026.8 hPa 88% 7.8mm
10/05:00am SW 7-10 kts 15.5°c 1026.4 hPa 87% 7.8mm
10/04:30am SSE 5-8 kts 15.8°c 1026.3 hPa 84% 7.8mm
10/04:00am ESE 7-11 kts 17.0°c 1026.3 hPa 86% 7.8mm
10/03:30am SSW 6-9 kts 15.7°c 1026.3 hPa 87% 7.8mm
10/03:00am SSW 4-6 kts 15.3°c 1026.6 hPa 89% 7.8mm
10/02:30am SSW 5-6 kts 15.1°c 1026.6 hPa 89% 7.8mm
10/02:00am WSW 4-8 kts 15.2°c 1027.1 hPa 89% 7.8mm
10/01:30am SW 7-9 kts 15.1°c 1027.0 hPa 89% 7.4mm
10/01:00am W 5-7 kts 15.1°c 1027.2 hPa 90% 7.0mm
10/12:30am WSW 5-7 kts 15.2°c 1027.4 hPa 90% 6.8mm
10/12:00am SW 7-9 kts 15.3°c 1027.6 hPa 89% 6.8mm
Time Wind Speed Temp Pressure Rel. Hum Rain
09/11:30pm SW 7-9 kts 15.4°c 1027.8 hPa 88% 6.8mm
09/11:00pm ENE 5-7 kts 16.7°c 1027.6 hPa 86% 4.6mm
09/10:30pm E 8-13 kts 16.4°c 1027.9 hPa 90% 4.2mm
09/10:00pm SW 6-9 kts 15.2°c 1028.1 hPa 90% 2.4mm
09/09:30pm SSW 6-10 kts 15.1°c 1028.3 hPa 90% 2.2mm
09/09:00pm SSW 7-10 kts 15.2°c 1028.2 hPa 90% 2.2mm
09/08:30pm SW 6-8 kts 15.2°c 1027.9 hPa 89% 2.0mm
09/08:00pm SSW 2-6 kts 15.4°c 1028.1 hPa 89% 2.0mm
09/07:30pm SSW 7-10 kts 15.5°c 1027.6 hPa 89% 1.2mm
09/07:00pm SSW 7-10 kts 15.5°c 1027.8 hPa 89% 1.2mm
09/06:30pm S 8-12 kts 15.8°c 1027.6 hPa 88% 1.2mm
09/06:00pm SE 10-14 kts 16.3°c 1027.6 hPa 89% 1.2mm
09/05:30pm SSE 13-18 kts 16.0°c 1026.9 hPa 89% 1.0mm
09/05:00pm S 7-10 kts 15.6°c 1027.1 hPa 87% 1.0mm
09/04:30pm SE 14-19 kts 16.6°c 1027.1 hPa 83% 0.4mm
09/04:00pm SE 11-15 kts 17.8°c 1026.9 hPa 80% 0.4mm
09/03:30pm SE 12-16 kts 17.4°c 1026.9 hPa 84% 0.4mm
09/03:00pm SE 15-18 kts 17.6°c 1027.0 hPa 81% 0.4mm
09/02:30pm SSE 9-12 kts 17.7°c 1027.2 hPa 85% 0.4mm
09/02:00pm SE 14-19 kts 17.1°c 1027.3 hPa 83% 0.4mm
09/01:30pm SSE 12-17 kts 19.6°c 1027.0 hPa 73% 0.2mm
09/01:00pm SSE 12-17 kts 19.4°c 1027.4 hPa 70% 0.2mm
09/12:30pm SSE 11-14 kts 19.8°c 1027.8 hPa 70% 0.0mm
09/12:00pm SSE 12-17 kts 19.2°c 1028.2 hPa 75% 0.0mm
09/11:30am SSE 12-16 kts 18.3°c 1028.7 hPa 74% 0.0mm
09/11:00am SSE 12-16 kts 18.6°c 1029.2 hPa 76% 0.0mm
09/10:30am S 12-18 kts 17.8°c 1029.1 hPa 78% 0.0mm
09/10:00am S 11-16 kts 17.0°c 1029.2 hPa 83% 0.0mm
09/09:30am S 11-16 kts 16.1°c 1029.3 hPa 87% 0.0mm
09/09:00am S 10-14 kts 15.4°c 1029.2 hPa 89% 14.4mm
09/08:30am S 9-13 kts 15.3°c 1029.1 hPa 90% 14.0mm
09/08:00am SSW 7-11 kts 14.9°c 1028.6 hPa 90% 14.0mm
09/07:30am SSW 6-9 kts 14.7°c 1028.5 hPa 90% 14.0mm
09/07:00am S 5-7 kts 14.5°c 1028.2 hPa 90% 13.8mm
09/06:30am S 8-12 kts 14.6°c 1027.8 hPa 91% 13.8mm
09/06:00am S 7-11 kts 14.5°c 1027.5 hPa 90% 13.2mm
09/05:30am SSW 6-9 kts 14.6°c 1027.3 hPa 90% 12.4mm
09/05:00am SSW 8-13 kts 14.6°c 1026.9 hPa 90% 12.2mm
09/04:30am S 9-13 kts 14.5°c 1026.5 hPa 90% 12.2mm
09/04:00am S 10-14 kts 14.5°c 1026.5 hPa 90% 11.6mm
09/03:30am S 9-13 kts 14.5°c 1026.6 hPa 90% 10.8mm
09/03:00am SSW 8-14 kts 14.5°c 1026.7 hPa 90% 10.4mm
09/02:30am S 9-13 kts 14.4°c 1026.8 hPa 90% 10.0mm
09/02:00am S 9-14 kts 14.5°c 1026.8 hPa 90% 9.2mm
09/01:30am S 8-11 kts 14.5°c 1026.9 hPa 90% 8.6mm
09/01:00am S 9-12 kts 14.6°c 1027.3 hPa 90% 8.6mm
09/12:30am SSW 7-10 kts 14.6°c 1027.4 hPa 90% 8.4mm
09/12:00am SSW 8-12 kts 14.6°c 1027.5 hPa 90% 8.2mm
Time Wind Speed Temp Pressure Rel. Hum Rain
08/11:30pm S 11-16 kts 14.5°c 1027.7 hPa 90% 8.2mm
08/11:00pm S 9-14 kts 14.7°c 1027.8 hPa 90% 7.6mm
08/10:30pm S 9-16 kts 14.5°c 1027.7 hPa 90% 6.2mm
08/10:00pm S 9-13 kts 14.7°c 1027.8 hPa 90% 3.6mm
08/09:30pm S 10-15 kts 14.6°c 1027.8 hPa 90% 3.4mm
08/09:00pm S 9-12 kts 14.6°c 1027.8 hPa 89% 3.2mm
08/08:30pm S 11-16 kts 14.8°c 1027.8 hPa 89% 3.0mm
08/08:00pm S 11-18 kts 15.0°c 1027.6 hPa 86% 0.8mm
08/07:30pm S 13-18 kts 15.9°c 1027.3 hPa 83% 0.0mm
08/07:00pm S 12-17 kts 15.6°c 1026.9 hPa 82% 0.0mm
08/06:30pm S 12-19 kts 16.0°c 1026.7 hPa 80% 0.0mm
08/06:00pm S 12-18 kts 16.6°c 1026.4 hPa 79% 0.0mm
08/05:30pm SSE 14-20 kts 17.3°c 1026.0 hPa 76% 0.0mm
08/05:00pm SSE 16-24 kts 17.8°c 1025.6 hPa 71% 0.0mm
08/04:30pm SSE 15-23 kts 18.0°c 1025.3 hPa 70% 0.0mm
08/04:00pm SSE 17-24 kts 19.0°c 1025.1 hPa 69% 0.0mm
08/03:30pm SSE 19-25 kts 20.0°c 1024.8 hPa 63% 0.0mm
08/03:00pm SSE 15-20 kts 20.6°c 1024.6 hPa 57% 0.0mm
08/02:30pm SSE 15-20 kts 20.8°c 1024.6 hPa 52% 0.0mm
08/02:00pm SSE 14-19 kts 21.3°c 1024.8 hPa 52% 0.0mm
08/01:30pm SSE 10-14 kts 21.5°c 1025.0 hPa 53% 0.0mm
08/01:00pm SSE 10-13 kts 21.9°c 1025.3 hPa 50% 0.0mm
08/12:30pm SSE 11-15 kts 21.9°c 1025.4 hPa 51% 0.0mm
08/12:00pm SSE 9-14 kts 21.4°c 1025.7 hPa 48% 0.0mm
08/11:30am SSE 10-14 kts 21.1°c 1026.3 hPa 51% 0.0mm
08/11:00am SSE 10-15 kts 20.9°c 1026.7 hPa 53% 0.0mm
08/10:30am S 10-16 kts 20.4°c 1027.0 hPa 51% 0.0mm
08/10:00am S 11-19 kts 19.9°c 1027.1 hPa 53% 0.0mm
08/09:30am S 10-16 kts 19.2°c 1027.2 hPa 57% 0.0mm
08/09:00am S 10-16 kts 18.3°c 1027.2 hPa 58% 0.0mm
08/08:30am SSW 8-12 kts 17.5°c 1027.0 hPa 63% 0.0mm
08/08:00am SSW 8-13 kts 16.4°c 1026.8 hPa 66% 0.0mm
08/07:30am SSW 7-9 kts 15.0°c 1026.6 hPa 72% 0.0mm
08/07:00am S 6-8 kts 13.9°c 1026.4 hPa 74% 0.0mm
08/06:30am SSW 7-10 kts 14.1°c 1026.2 hPa 74% 0.0mm
08/06:00am SSW 5-8 kts 13.4°c 1025.9 hPa 75% 0.0mm
08/05:30am SW 5-8 kts 13.8°c 1025.6 hPa 74% 0.0mm
08/05:00am SSW 6-9 kts 14.2°c 1025.3 hPa 72% 0.0mm
08/04:30am SSW 8-12 kts 14.4°c 1025.2 hPa 73% 0.0mm
08/04:00am SSW 4-8 kts 13.0°c 1025.3 hPa 75% 0.0mm
08/03:30am SW 5-7 kts 13.9°c 1025.6 hPa 74% 0.0mm
08/03:00am SW 6-7 kts 14.2°c 1025.8 hPa 73% 0.0mm
08/02:30am SW 6-8 kts 14.4°c 1025.9 hPa 73% 0.0mm
08/02:00am SW 7-10 kts 14.9°c 1026.0 hPa 70% 0.0mm
08/01:30am SSW 6-10 kts 15.3°c 1026.2 hPa 69% 0.0mm
08/01:00am SSW 6-9 kts 15.1°c 1026.3 hPa 70% 0.0mm
08/12:30am SSW 7-10 kts 15.0°c 1026.5 hPa 70% 0.0mm
08/12:00am SSW 7-12 kts 15.4°c 1026.5 hPa 69% 0.0mm